WB2IFS-13 Weather Reports


Display with metric or nautical units.
time (UTC)temp
F
wind
direction
speed
MPH
gust
MPH
rain 1hr
in
rain 24hr
in
rain mn
in
humidity
%
barometer
mb
20260507105959 53 216 0.0 2.0 0.00 0.21 0.19 94 1013.2
20260507104458 53 277 0.0 1.0 0.00 0.21 0.19 95 1013.1
20260507102958 53 190 0.0 0.0 0.00 0.21 0.19 96 1012.7
20260507101458 53 189 0.0 0.0 0.00 0.21 0.19 95 1012.6
20260507095958 53 190 0.0 0.0 0.00 0.21 0.19 95 1012.5
20260507094458 53 189 0.0 0.0 0.00 0.21 0.19 94 1012.6
20260507092958 53 201 0.0 1.0 0.00 0.21 0.19 94 1012.4
20260507091458 53 223 0.0 1.0 0.00 0.21 0.19 93 1012.8
20260507085959 53 222 0.0 1.0 0.00 0.21 0.19 92 1012.5
20260507084458 53 232 1.0 6.0 0.00 0.21 0.19 92 1012.4
20260507082958 54 46 0.0 1.0 0.00 0.21 0.19 93 1012.3
20260507081457 54 136 0.0 3.0 0.00 0.21 0.19 93 1012.0
20260507080001 55 255 0.0 1.0 0.00 0.21 0.19 95 1011.6
20260507074458 55 278 0.0 2.0 0.00 0.21 0.19 96 1011.7
20260507073001 55 108 0.0 3.0 0.00 0.21 0.19 96 1011.4
20260507071459 55 28 0.0 2.0 0.00 0.21 0.19 96 1011.5
20260507070004 56 257 0.0 2.0 0.00 0.21 0.19 96 1011.3
20260507064459 56 28 1.0 2.0 0.00 0.21 0.19 96 1011.4
20260507063000 56 294 1.0 4.0 0.00 0.21 0.19 95 1011.3
20260507061459 57 285 1.0 5.0 0.00 0.21 0.19 96 1010.7
20260507060000 58 82 0.0 2.0 0.02 0.21 0.19 96 1010.8
20260507054459 58 310 0.0 0.0 0.13 0.21 0.19 96 1011.2
20260507052958 58 157 0.0 1.0 0.18 0.21 0.19 96 1010.9
20260507051500 59 210 0.0 2.0 0.19 0.21 0.19 95 1011.4
20260507050001 59 322 1.0 3.0 0.17 0.19 0.17 94 1011.4
20260507044500 60 321 0.0 1.0 0.06 0.08 0.06 93 1011.8
20260507043000 61 34 0.0 3.0 0.01 0.03 0.01 91 1011.3
20260507041500 62 274 0.0 1.0 0.00 0.02 0.00 90 1011.4
20260507040000 62 325 0.0 5.0 0.00 0.02 0.02 91 1010.9
20260507034501 62 349 0.0 1.0 0.00 0.02 0.02 92 1011.1
20260507033001 63 249 0.0 1.0 0.00 0.02 0.02 92 1011.0
20260507031500 64 70 0.0 3.0 0.00 0.02 0.02 91 1010.8
20260507030001 65 119 1.0 4.0 0.00 0.02 0.02 92 1010.7
20260507024501 65 89 0.0 1.0 0.00 0.02 0.02 92 1010.3
20260507022959 65 97 0.0 0.0 0.00 0.02 0.02 91 1010.0
20260507021459 65 97 0.0 1.0 0.00 0.02 0.02 92 1009.8
20260507020001 65 102 0.0 0.0 0.00 0.02 0.02 93 1010.2
20260507014501 64 102 0.0 0.0 0.00 0.02 0.02 93 1010.0
20260507013000 65 101 0.0 1.0 0.00 0.02 0.02 92 1010.2
20260507011459 65 101 0.0 0.0 0.00 0.02 0.02 93 1010.5
20260507010002 64 101 0.0 0.0 0.00 0.02 0.02 92 1010.4
20260507004500 64 101 0.0 0.0 0.00 0.02 0.02 92 1010.2
20260507002959 65 101 0.0 0.0 0.00 0.02 0.02 91 1010.2
20260507001459 65 101 0.0 0.0 0.00 0.02 0.02 90 1010.1
20260507000002 66 101 0.0 0.0 0.00 0.02 0.02 88 1009.9
20260506234459 67 101 0.0 1.0 0.00 0.02 0.02 86 1009.7
20260506233000 68 86 0.0 3.0 0.00 0.02 0.02 84 1009.6
20260506231500 68 161 1.0 2.0 0.00 0.02 0.02 83 1009.5
20260506230001 69 160 1.0 3.0 0.00 0.02 0.02 82 1009.4
20260506224459 69 253 1.0 4.0 0.00 0.02 0.02 82 1009.4
20260506221459 69 255 1.0 4.0 0.00 0.02 0.02 81 1009.4
20260506220003 69 283 2.0 5.0 0.00 0.02 0.02 81 1009.4
20260506214500 69 135 2.0 5.0 0.00 0.02 0.02 81 1009.5
20260506213000 69 245 2.0 6.0 0.00 0.02 0.02 80 1009.4
20260506211502 69 81 3.0 12.0 0.00 0.02 0.02 80 1009.2
20260506210001 69 229 3.0 8.0 0.00 0.02 0.02 80 1009.1
20260506204500 69 154 3.0 9.0 0.00 0.02 0.02 80 1009.0
20260506203000 69 169 3.0 7.0 0.00 0.02 0.02 81 1008.9
20260506201459 69 101 3.0 10.0 0.00 0.02 0.02 82 1008.9
20260506200002 68 282 5.0 11.0 0.00 0.02 0.02 82 1008.8
20260506194500 68 64 3.0 11.0 0.00 0.02 0.02 82 1008.9
20260506193000 68 86 3.0 12.0 0.00 0.02 0.02 82 1009.4
20260506191459 67 133 4.0 12.0 0.00 0.02 0.02 83 1009.6
20260506190001 68 172 4.0 10.0 0.00 0.02 0.02 82 1009.6
20260506184500 68 288 4.0 8.0 0.00 0.02 0.02 81 1009.4
20260506183000 68 159 4.0 10.0 0.00 0.02 0.02 82 1009.7
20260506181459 67 262 4.0 12.0 0.00 0.02 0.02 82 1009.9
20260506180001 67 55 4.0 10.0 0.00 0.02 0.02 82 1009.7
20260506174501 66 135 5.0 12.0 0.00 0.02 0.02 83 1009.8
20260506173000 66 86 4.0 9.0 0.00 0.02 0.02 85 1010.0
20260506171459 65 238 5.0 14.0 0.00 0.02 0.02 85 1010.0
20260506170001 65 129 4.0 11.0 0.00 0.02 0.02 87 1010.1
20260506164501 64 107 4.0 11.0 0.00 0.02 0.02 89 1010.3
20260506162959 63 172 4.0 11.0 0.00 0.02 0.02 91 1010.3
20260506161459 63 73 4.0 15.0 0.00 0.02 0.02 91 1010.5
20260506160004 63 129 4.0 12.0 0.00 0.02 0.02 93 1010.8
20260506154458 62 158 2.0 8.0 0.00 0.02 0.02 93 1011.0
20260506152959 62 134 2.0 10.0 0.00 0.02 0.02 93 1011.0
20260506151501 61 212 3.0 9.0 0.00 0.02 0.02 93 1011.4
20260506150002 62 158 2.0 7.0 0.00 0.02 0.02 93 1011.7
20260506144458 61 4 1.0 5.0 0.00 0.02 0.02 93 1011.7
20260506143000 61 37 1.0 5.0 0.02 0.02 0.02 92 1011.6
20260506141459 61 225 2.0 6.0 0.02 0.02 0.02 90 1011.7
20260506140000 62 79 2.0 7.0 0.02 0.02 0.02 88 1011.7
20260506134459 62 79 2.0 7.0 0.02 0.02 0.02 86 1011.9
20260506132959 63 180 2.0 6.0 0.00 0.00 0.00 84 1011.9
20260506131458 64 330 2.0 6.0 0.00 0.00 0.00 82 1011.8
20260506130001 64 198 2.0 8.0 0.00 0.00 0.00 81 1011.6
20260506124459 64 223 2.0 6.0 0.00 0.00 0.00 80 1011.3
20260506123000 64 117 3.0 11.0 0.00 0.00 0.00 80 1011.4
20260506121500 65 13 2.0 6.0 0.00 0.00 0.00 78 1011.8
20260506120001 65 139 2.0 6.0 0.00 0.00 0.00 77 1011.7
20260506114500 65 133 3.0 9.0 0.00 0.00 0.00 77 1011.7
20260506112959 65 44 3.0 9.0 0.00 0.00 0.00 77 1011.4
20260506111500 64 153 3.0 9.0 0.00 0.00 0.00 78 1011.3